User: anonymous   Login
Location: Santa Barbara
(34.4500°N, 119.7700°W)
Time: 04:53:50
(UTC-08:00)
Language:

Cosmos 1892 Rocket - Orbit

View from above orbital plane
View from above orbital plane
View from above satellite
View from above satellite

Ground track
Ground track

The orbit data is extracted from the following two-line orbital elements,

1 18422U 87088B   17350.13318229  .00000091  00000-0  81982-5 0  9996
2 18422  82.5110   6.3869 0019149 195.5476 226.0946 14.82953930628783
Epoch (UTC): 16 December 2017 03:11:46
Eccentricity: 0.0019149
inclination: 82.5110°
perigee height: 606 km
apogee height: 633 km
right ascension of ascending node: 6.3869°
argument of perigee: 195.5476°
revolutions per day: 14.82953930
mean anomaly at epoch: 226.0946°
orbit number at epoch: 62878

The dashed part of the orbit path shows where the satellite is in the earth's shadow,  

DLR